Location: Champseau
(45.8333°N, 1.7667°E)
Time: 05:36:52
(UTC+00:00)

NOSS 0 Rocket - Pass Details

Date: 18 April 2021
Orbit: 935 x 955 km, 70.0° (Epoch: 15 May)

Event Time Altitude Azimuth Distance (km) Brightness Sun altitude
Rises 20:51:23 0° 329° (NNW) 3,626 8.3 -20.1°
Reaches altitude 10° 20:53:56 10° 327° (NNW) 2,680 7.4 -20.4°
Maximum altitude 21:00:04 63° 248° (WSW) 1,054 4.2 -21.2°
Enters shadow 21:03:07 31° 178° (S) 1,619 4.8 -21.6°
